Location: Gleizolles
(44.4833°N, 6.7667°E)
Time: 22:13:19
(UTC+00:00)

Courier 1B - All Passes

Search period start: 23 June 2024 00:00
Search period end: 03 July 2024 00:00
Orbit: 962 x 1208 km, 28.3° (Epoch: 23 June)

Date Brightness Start Highest point End Pass type
(mag) Time Alt. Az. Time Alt. Az. Time Alt. Az.
23 Jun - 00:36:35 10° SW 00:41:37 20° S 00:46:50 10° SE visible
23 Jun - 02:29:22 10° SW 02:34:43 22° S 02:40:13 10° SE visible
23 Jun - 04:24:15 10° SW 04:27:46 14° SSW 04:31:19 10° S daylight
23 Jun - 23:43:28 10° SSW 23:48:00 18° SSE 23:52:42 10° SE visible
24 Jun - 01:35:43 10° SW 01:41:01 22° S 01:46:32 10° SE visible
24 Jun - 03:29:49 10° SW 03:34:05 16° SSW 03:38:28 10° SSE daylight
24 Jun - 22:50:36 10° SSW 22:54:26 15° SSE 22:58:21 10° SE night (unlit)
25 Jun - 00:42:13 10° SW 00:47:22 22° S 00:52:44 10° SE visible
25 Jun - 02:35:45 10° SW 02:40:26 18° SSW 02:45:17 10° SSE visible
25 Jun - 21:58:12 10° S 22:00:54 13° SSE 22:03:38 10° SE night (unlit)
25 Jun - 23:48:51 10° SW 23:53:44 20° S 23:58:50 10° SE visible
26 Jun - 01:41:54 10° SW 01:46:47 20° S 01:51:51 10° SE visible
26 Jun - 03:37:58 10° SW 03:39:45 11° SSW 03:41:34 10° S daylight
26 Jun - 22:55:39 10° SSW 23:00:09 19° S 23:04:49 10° SE night (unlit)
27 Jun - 00:48:13 10° SW 00:53:09 20° S 00:58:16 10° SE visible
27 Jun - 02:42:54 10° SW 02:46:09 13° SSW 02:49:27 10° S visible
27 Jun - 22:02:38 10° SSW 22:06:36 16° SSE 22:10:40 10° SE visible
27 Jun - 23:54:40 10° SW 23:59:31 21° S 00:04:35 10° SE visible
28 Jun - 01:48:36 10° SW 01:52:32 15° SSW 01:56:34 10° SSE visible
28 Jun - 21:09:55 10° SSW 21:13:05 14° SSE 21:16:18 10° SE visible
28 Jun - 23:01:14 10° SW 23:05:56 20° S 23:10:48 10° SE night (unlit)
29 Jun - 00:54:38 10° SW 00:58:55 17° SSW 01:03:21 10° SSE visible
29 Jun - 20:17:53 10° S 20:19:36 11° SSE 20:21:20 10° SE visible
29 Jun - 22:07:56 10° SW 22:12:22 19° S 22:16:56 10° SE visible
30 Jun - 00:00:51 10° SW 00:05:19 18° S 00:09:56 10° SSE night (unlit)
30 Jun - 01:57:03 10° SSW 01:58:14 10° SSW 01:59:26 10° SSW visible
30 Jun - 21:14:47 10° SSW 21:18:50 17° S 21:22:58 10° SE visible
30 Jun - 23:07:13 10° SW 23:11:44 19° S 23:16:25 10° SE visible
01 Jul - 01:01:51 10° SW 01:04:39 13° SSW 01:07:31 10° S night (unlit)
01 Jul - 20:21:49 10° SSW 20:25:19 15° SSE 20:28:53 10° SE visible
01 Jul - 22:13:43 10° SW 22:18:11 19° S 22:22:47 10° SE visible
02 Jul - 00:07:35 10° SW 00:11:06 15° SSW 00:14:42 10° SSE night (unlit)
02 Jul - 19:29:11 10° S 19:31:50 13° SSE 19:34:30 10° SE daylight
02 Jul - 21:20:17 10° SW 21:24:38 19° S 21:29:05 10° SE visible
02 Jul - 23:13:38 10° SW 23:17:33 16° S 23:21:33 10° SSE visible
